Regional Weather Roundup
Issued by NWS

Home | Current Version | Previous Version | Graphics & Text | Print | Product List | Glossary On
Versions: 1 2 3 4 5 6 7 8 9 10 11 12 13 14 15 16 17 18 19 20 21 22 23 24 25 26 27 28 29 30 31 32 33 34 35 36 37 38 39 40 41 42 43 44 45 46 47 48 49 50
000
ASUS43 KIND 200909
RWRIN

WEATHER ROUNDUP FOR INDIANA
NATIONAL WEATHER SERVICE INDIANAPOLIS IN
400 AM EST MON NOV 20 2017

NOTE: "FAIR" INDICATES FEW OR NO CLOUDS BELOW 12,000 FEET WITH NO
SIGNIFICANT WEATHER AND/OR OBSTRUCTIONS TO VISIBILITY.

* - STATION DOES NOT REPORT WEATHER SUCH AS PRECIPITATION OR FOG.

+ - STATION NOT QUALITY CONTROLLED BY THE NATIONAL WEATHER SERVICE.
    USE DATA WITH CAUTION...ESPECIALLY DEWPOINT AND RELATIVE
    HUMIDITY OBSERVATIONS.

INZ001>003-010>013-019-020-201000-
NORTHWEST INDIANA

CITY           SKY/WX    TMP DP  RH WIND       PRES   REMARKS
GARY /AIRPORT/ CLEAR     33  22  63 SW7       30.04F WCI  27
KNOX *+        CLEAR     28  23  80 S8        30.06F WCI  20
LA PORTE +     MOCLDY    27  22  82 S6        30.05F WCI  21
MICHIGAN CITY+ CLEAR     32  21  64 S9        30.04S WCI  24
MONTICELLO +   CLOUDY    28  22  79 S8        30.09F WCI  20
RENSSELAER +   CLOUDY    32  23  69 S12       30.07F WCI  23
VALPARAISO     CLEAR     29  22  75 SW9       30.05F WCI  20

$$

LMZ046-743>745-201000-
SOUTHERN LAKE MICHIGAN

STATION/POSITION TIME  TEMP    WIND        PRES    WAVE
                       AIR SEA DIR/SP/G            HT
                 (UTC) (F)     (DEG/KT/KT) (MB)    (FT)
BURNS HARBOR     0840   32     210/  9/ 14 1017.3F
MICHIGAN CITY    0840   34     200/ 16/ 19   N/A

$$

INZ004-005-014>016-021>024-201000-
NORTH CENTRAL INDIANA

CITY           SKY/WX    TMP DP  RH WIND       PRES   REMARKS
GOSHEN         CLEAR     27  20  75 SW9       30.06S WCI  18
LOGANSPORT +   CLEAR     28  23  80 S9        30.11F WCI  20
PERU/GRISSOM   CLEAR     27  23  85 SW7       30.09F WCI  20
ROCHESTER +    CLEAR     30  27  86 SW9       30.08F WCI  22
SOUTH BEND     CLEAR     25  22  88 SW9       30.05F WCI  15
WARSAW +       CLEAR     28  21  74 SW3       30.07F

$$

INZ006>009-017-018-025>027-201000-
NORTHEAST INDIANA

CITY           SKY/WX    TMP DP  RH WIND       PRES   REMARKS
AUBURN +       CLEAR     28  21  74 S6        30.08F WCI  22
FORT WAYNE     PTCLDY    28  24  85 SW10      30.10S WCI  19
HUNTINGTON +   CLEAR     28  23  83 SW7       30.10F WCI  20
KENDALLVILLE + CLEAR     27  22  80 SW8       30.06F WCI  19

$$

INZ028-029-035-036-043>045-051>053-201000-
WEST CENTRAL INDIANA

CITY           SKY/WX    TMP DP  RH WIND       PRES   REMARKS
CRAWFORDSVL +  CLOUDY    27  23  86 S7        30.13S WCI  19
GREENCASTLE +  CLOUDY    28  21  74 CALM      30.15S
LAFAYETTE      CLOUDY    28  23  81 S5        30.11F WCI  23
TERRE HAUTE    CLOUDY    26  21  81 S5        30.17F WCI  20

$$

INZ030>032-037>040-046>048-054>057-064-065-201000-
CENTRAL INDIANA

CITY           SKY/WX    TMP DP  RH WIND       PRES   REMARKS
CP ATTERBURY + CLOUDY    23  21  93 CALM      30.18S
FISHERS *+     CLOUDY    25  25 100 CALM      30.14F
FRANKFORT +    CLOUDY    30  25  82 SW6       30.13S WCI  24
INDIANAPOLIS   CLOUDY    25  20  81 S6        30.15F WCI  18
-EAGLE CREEK   CLOUDY    26  20  77 S3        30.14S
KOKOMO +       CLEAR     28  23  81 SW7       30.12S WCI  21
MARION +       CLEAR     26  23  89 S7        30.13S WCI  18
MT COMFORT *+  CLOUDY    25  25 100 S5        30.14S WCI  19
SHELBYVILLE    CLOUDY    26  20  77 S6        30.16S WCI  19
ZIONSVILLE +   CLOUDY    25  22  89 S6        30.13F WCI  18

$$

INZ033-034-041-042-049-050-058-059-201000-
EAST CENTRAL INDIANA

CITY           SKY/WX    TMP DP  RH WIND       PRES   REMARKS
MUNCIE         CLOUDY    28  21  75 SW5       30.13S WCI  23
RICHMOND +     CLOUDY    25  23  93 W7        30.14S WCI  17

$$

INZ060-061-067>069-081>083-085>088-201000-
SOUTHWEST INDIANA

CITY           SKY/WX    TMP DP  RH WIND       PRES   REMARKS
EVANSVILLE     CLEAR     28  25  88 CALM      30.23S
HUNTINGBURG +  CLEAR     27  22  81 S3        30.22F
WASHINGTON +   CLEAR     28  22  77 S7        30.20F WCI  21

$$

INZ062-063-066-070>080-084-089>092-201000-
SOUTH CENTRAL AND SOUTHEAST INDIANA

CITY           SKY/WX    TMP DP  RH WIND       PRES   REMARKS
BEDFORD +      CLEAR     25  23  93 CALM      30.18F
BLOOMINGTON    CLOUDY    26  19  74 S3        30.17S
MADISON *+     CLOUDY    28  23  80 CALM      30.20F
NORTH VERNON + CLOUDY    25  21  86 S3        30.19S
SEYMOUR +      CLOUDY    25  21  86 S3        30.19F

$$





USA.gov is the U.S. government's official web portal to all federal, state and local government web resources and services.